CW7668 Weather Reports


Display with metric or nautical units.
time (UTC)temp
F
wind
direction
speed
MPH
gust
MPH
rain 1hr
in
rain 24hr
in
rain mn
in
humidity
%
barometer
mb
20260502162811 67 300 3.0 10.0 0.00 0.99 0.00 76 1021.3
20260502162312 67 350 4.0 10.0 0.00 1.00 0.00 74 1021.1
20260502161812 67 351 4.0 11.0 0.00 1.01 0.00 76 1021.2
20260502161539 67 338 4.0 11.0 0.00 1.02 0.00 75 1021.2
20260502160809 67 342 4.0 9.0 0.00 1.04 0.00 78 1021.2
20260502160536 66 16 4.0 10.0 0.00 1.05 0.00 77 1021.2
20260502152300 64 17 7.0 13.0 0.00 1.13 0.00 80 1020.8
20260502151802 64 346 7.0 13.0 0.00 1.13 0.00 80 1020.7
20260502151259 64 9 6.0 13.0 0.00 1.13 0.00 79 1020.8
20260502150759 64 355 6.0 12.0 0.00 1.13 0.00 82 1020.8
20260502150258 63 10 5.0 12.0 0.00 1.13 0.00 81 1020.9
20260502130640 56 332 2.0 8.0 0.00 1.36 0.00 93 1019.9
20260502130405 56 288 2.0 8.0 0.00 1.36 0.00 94 1019.8
20260502123604 54 293 1.0 3.0 0.00 1.36 0.00 96 1019.2
20260502123058 54 275 1.0 5.0 0.00 1.36 0.00 96 1019.1
20260502122551 53 355 1.0 5.0 0.00 1.36 0.00 96 1019.0
20260502122046 53 300 1.0 4.0 0.00 1.36 0.00 96 1019.0
20260502121540 53 304 1.0 4.0 0.00 1.36 0.00 96 1018.8
20260502121036 53 296 0.0 4.0 0.00 1.36 0.00 96 1018.8
20260502121031 53 336 0.0 3.0 0.00 1.36 0.00 96 1018.9
20260502115747 52 336 0.0 0.0 0.00 1.36 0.00 96 1018.8
20260502115240 52 336 0.0 0.0 0.00 1.36 0.00 96 1018.8
20260502114504 52 336 0.0 0.0 0.00 1.36 0.00 96 1018.7
20260502113958 52 336 0.0 0.0 0.00 1.36 0.00 96 1018.6
20260502113452 52 336 0.0 2.0 0.00 1.36 0.00 96 1018.7
20260502112946 53 338 1.0 6.0 0.00 1.36 0.00 96 1018.7
20260502112439 53 338 1.0 6.0 0.00 1.36 0.00 96 1018.5
20260502111934 53 11 1.0 6.0 0.00 1.36 0.00 96 1018.5
20260502111658 53 349 2.0 4.0 0.00 1.36 0.00 96 1018.4
20260502110922 53 330 2.0 7.0 0.00 1.36 0.00 95 1018.3
20260502110416 53 9 2.0 7.0 0.00 1.36 0.00 95 1018.3
20260502105909 53 284 1.0 6.0 0.00 1.36 0.00 95 1018.1
20260502105404 53 272 1.0 6.0 0.00 1.36 0.00 95 1018.1
20260502104857 53 323 1.0 5.0 0.00 1.36 0.00 95 1018.0
20260502104624 53 350 1.0 5.0 0.00 1.36 0.00 94 1018.0
20260502103846 54 346 1.0 4.0 0.00 1.36 0.00 94 1017.9
20260502103339 54 348 1.0 5.0 0.00 1.36 0.00 94 1018.0
20260502103106 54 350 1.0 6.0 0.00 1.36 0.00 94 1017.8
20260502102328 54 355 1.0 6.0 0.00 1.36 0.00 94 1017.8
20260502101821 54 344 1.0 5.0 0.00 1.36 0.00 94 1017.8
20260502101316 54 341 2.0 5.0 0.00 1.36 0.00 94 1017.7
20260502100810 54 0 2.0 5.0 0.00 1.36 0.00 94 1017.6
20260502100303 54 355 1.0 4.0 0.00 1.36 0.00 94 1017.5
20260502091204 55 0 4.0 8.0 0.00 1.36 0.00 93 1016.2
20260502090928 55 350 3.0 8.0 0.00 1.36 0.00 93 1016.2
20260502090152 55 0 3.0 5.0 0.00 1.36 0.00 93 1016.1
20260502071137 55 355 3.0 6.0 0.00 1.36 0.00 95 1016.0
20260502070637 55 5 3.0 6.0 0.00 1.36 0.00 95 1016.1
20260502070408 55 5 3.0 6.0 0.00 1.36 0.00 95 1016.1
20260502065636 55 36 3.0 6.0 0.00 1.36 0.00 94 1016.2
20260502065138 56 351 4.0 8.0 0.00 1.36 0.00 94 1016.3
20260502064637 56 5 5.0 11.0 0.00 1.36 0.00 94 1016.2
20260502064137 56 5 5.0 11.0 0.00 1.36 0.00 94 1016.1
20260502063637 56 351 5.0 11.0 0.00 1.36 0.00 94 1016.1
20260502063138 56 0 5.0 11.0 0.00 1.36 0.00 94 1016.1
20260502062637 56 5 5.0 10.0 0.00 1.36 0.00 94 1016.2
20260502062133 56 348 6.0 11.0 0.00 1.36 0.00 94 1016.1
20260502061633 56 20 7.0 16.0 0.00 1.36 0.00 94 1016.0
20260502061132 56 344 7.0 16.0 0.00 1.36 0.00 93 1016.0
20260502060632 56 5 7.0 13.0 0.00 1.36 0.00 94 1016.1
20260502060133 56 355 7.0 13.0 0.00 1.36 0.00 94 1016.0
20260502055632 56 355 7.0 13.0 0.00 1.36 0.00 94 1016.1
20260502055134 56 355 7.0 16.0 0.00 1.36 0.00 94 1015.9
20260502054634 56 0 7.0 18.0 0.00 1.36 0.00 94 1016.1
20260502054134 56 348 8.0 18.0 0.00 1.36 0.00 94 1016.0
20260502053906 56 5 7.0 14.0 0.00 1.36 0.00 95 1016.1
20260502053134 56 355 6.0 11.0 0.00 1.36 0.00 95 1016.0
20260502052907 56 0 6.0 15.0 0.00 1.36 0.00 95 1016.1
20260502052406 56 345 7.0 15.0 0.00 1.36 0.00 95 1015.9
20260502051632 56 0 8.0 14.0 0.00 1.36 0.00 95 1015.9
20260502051134 57 10 7.0 14.0 0.00 1.36 0.00 95 1015.8
20260502050632 57 355 6.0 14.0 0.00 1.36 0.00 95 1015.8
20260502050132 57 343 6.0 13.0 0.00 1.36 0.00 95 1015.9
20260502045632 57 342 6.0 13.0 0.00 1.36 1.36 96 1015.8
20260502045132 57 347 7.0 13.0 0.00 1.36 1.36 96 1015.7
20260502044627 57 355 7.0 12.0 0.00 1.36 1.36 96 1015.6
20260502044121 57 355 6.0 13.0 0.00 1.36 1.36 96 1015.6
20260502043615 57 350 6.0 13.0 0.00 1.36 1.36 96 1015.6
20260502043340 57 355 5.0 12.0 0.00 1.36 1.36 96 1015.6
20260502042602 57 346 4.0 11.0 0.00 1.36 1.36 96 1015.7
20260502042057 57 9 5.0 10.0 0.00 1.36 1.36 96 1015.8
20260502041551 57 0 5.0 11.0 0.00 1.36 1.36 96 1015.7
20260502041045 56 349 4.0 11.0 0.00 1.36 1.36 96 1015.7
20260502040539 56 348 2.0 10.0 0.00 1.36 1.36 96 1015.6
20260502040032 56 10 2.0 9.0 0.00 1.36 1.36 96 1015.6
20260502035758 56 0 2.0 13.0 0.00 1.36 1.36 96 1015.6
20260502035253 56 342 4.0 13.0 0.00 1.36 1.36 96 1015.6
20260502034515 56 304 3.0 11.0 0.00 1.36 1.36 97 1015.5
20260502034008 56 312 2.0 10.0 0.00 1.36 1.36 96 1015.7
20260502033502 56 15 3.0 9.0 0.00 1.36 1.36 97 1015.7
20260502032957 56 320 3.0 9.0 0.00 1.36 1.36 97 1015.6
20260502032451 56 0 2.0 9.0 0.00 1.36 1.36 97 1015.6
20260502031945 56 344 3.0 9.0 0.01 1.36 1.36 97 1015.4
20260502031439 56 350 5.0 11.0 0.01 1.36 1.36 97 1015.2
20260502030933 56 355 6.0 15.0 0.01 1.36 1.36 96 1015.2
20260502030658 56 355 6.0 15.0 0.01 1.36 1.36 97 1015.1
20260502025920 56 336 6.0 14.0 0.01 1.36 1.36 97 1015.0
20260502025415 56 5 7.0 14.0 0.02 1.36 1.36 97 1014.9
20260502025140 56 355 6.0 13.0 0.02 1.36 1.36 97 1014.6
20260502024634 57 0 5.0 13.0 0.03 1.36 1.36 97 1014.6
20260502023856 57 346 5.0 10.0 0.04 1.36 1.36 97 1014.3
20260502023351 57 338 6.0 11.0 0.05 1.36 1.36 97 1014.0
20260502022845 57 345 6.0 11.0 0.06 1.36 1.36 97 1014.0
20260502022338 57 5 6.0 11.0 0.06 1.36 1.36 97 1013.9
20260502021832 57 24 5.0 10.0 0.05 1.35 1.35 97 1013.6
20260502021329 57 345 5.0 10.0 0.05 1.35 1.35 97 1013.9
20260502021323 57 5 6.0 12.0 0.05 1.35 1.35 97 1013.7
20260502020547 57 13 6.0 12.0 0.06 1.35 1.35 97 1013.5
20260502015808 58 355 6.0 15.0 0.07 1.35 1.35 97 1013.6
20260502015305 58 5 6.0 15.0 0.06 1.34 1.34 97 1013.6
20260502014757 58 335 6.0 12.0 0.08 1.34 1.34 97 1013.5
20260502014250 58 0 6.0 11.0 0.10 1.33 1.33 97 1013.6
20260502013745 58 0 6.0 12.0 0.11 1.32 1.32 97 1013.3
20260502013239 58 355 4.0 12.0 0.10 1.31 1.31 97 1013.4
20260502012732 59 5 4.0 11.0 0.09 1.30 1.30 97 1013.3
20260502012227 59 338 4.0 11.0 0.09 1.30 1.30 97 1013.1
20260502011721 59 0 3.0 8.0 0.10 1.30 1.30 97 1013.2
20260502011214 59 351 3.0 12.0 0.11 1.30 1.30 97 1013.1
20260502010709 59 338 3.0 12.0 0.11 1.30 1.30 97 1012.9
20260502010202 59 355 3.0 9.0 0.11 1.29 1.29 97 1012.9
20260502005657 59 263 3.0 10.0 0.11 1.28 1.28 97 1012.7
20260502005152 59 5 4.0 11.0 0.12 1.28 1.28 97 1012.7
20260502005147 59 350 3.0 11.0 0.10 1.26 1.26 97 1013.0
20260502004139 59 5 2.0 7.0 0.07 1.22 1.23 97 1013.1
20260502003905 59 297 3.0 9.0 0.07 1.21 1.21 97 1013.9
20260502003127 59 301 6.0 12.0 0.09 1.21 1.21 97 1013.2
20260502002621 59 331 6.0 13.0 0.11 1.21 1.21 97 1012.5
20260502002115 59 355 5.0 13.0 0.11 1.21 1.21 97 1011.8
20260502001608 60 348 5.0 12.0 0.10 1.20 1.20 97 1011.9
20260502001103 60 5 5.0 13.0 0.09 1.19 1.19 97 1011.8
20260502000557 60 346 6.0 13.0 0.09 1.19 1.19 97 1012.2
20260502000052 60 341 6.0 13.0 0.10 1.18 1.18 97 1012.3
20260501235552 60 333 5.0 11.0 0.11 1.17 1.17 97 1012.4
20260501235052 60 308 5.0 11.0 0.13 1.16 1.16 97 1012.5
20260501234553 60 11 3.0 9.0 0.18 1.15 1.16 97 1012.3
20260501234322 60 332 3.0 8.0 0.20 1.14 1.15 97 1012.7
20260501233552 60 0 3.0 9.0 0.20 1.14 1.14 97 1013.1
20260501233053 60 0 4.0 12.0 0.18 1.12 1.13 97 1012.7
20260501232550 60 0 5.0 12.0 0.16 1.10 1.11 97 1012.0
20260501232050 60 0 5.0 12.0 0.16 1.10 1.10 97 1011.7
20260501231551 60 0 6.0 15.0 0.16 1.10 1.10 97 1011.1
20260501231049 60 0 6.0 15.0 0.16 1.10 1.10 97 1010.4
20260501230823 60 36 6.0 13.0 0.16 1.10 1.10 97 1010.1
20260501230323 61 34 5.0 13.0 0.14 1.08 1.08 97 1010.3
20260501225552 61 30 2.0 13.0 0.12 1.06 1.06 97 1010.3
20260501225051 61 19 2.0 8.0 0.09 1.03 1.04 97 1010.6
20260501224549 61 349 2.0 8.0 0.03 0.97 0.97 97 1011.0
20260501224048 61 0 3.0 9.0 0.00 0.94 0.94 97 1012.0
20260501223548 61 348 5.0 14.0 0.00 0.94 0.94 97 1011.1
20260501223042 61 339 6.0 14.0 0.00 0.94 0.94 97 1009.6
20260501222535 61 60 5.0 11.0 0.00 0.94 0.94 97 1009.8
20260501222030 61 12 7.0 13.0 0.00 0.94 0.94 97 1009.9
20260501221803 61 342 7.0 13.0 0.00 0.94 0.94 97 1009.8
20260501221650 61 9 8.0 15.0 0.01 0.94 0.94 97 1009.9
20260501220759 61 5 8.0 15.0 0.02 0.94 0.94 97 1009.8
20260501220029 61 355 8.0 14.0 0.02 0.94 0.94 97 1009.9
20260501215527 61 342 8.0 14.0 0.03 0.94 0.94 97 1010.0
20260501215028 61 346 8.0 16.0 0.03 0.94 0.94 97 1010.1
20260501214528 62 327 7.0 16.0 0.03 0.94 0.94 97 1010.4
20260501214027 62 342 6.0 15.0 0.04 0.94 0.94 97 1010.7
20260501213528 62 10 5.0 14.0 0.04 0.94 0.94 97 1010.7
20260501213027 63 0 5.0 11.0 0.05 0.94 0.94 98 1010.5
20260501212529 62 10 5.0 11.0 0.05 0.94 0.94 98 1010.6
20260501212023 62 0 4.0 9.0 0.06 0.94 0.94 98 1010.7
20260501211525 62 5 3.0 9.0 0.07 0.94 0.94 98 1011.1
20260501211025 62 5 2.0 9.0 0.06 0.93 0.93 98 1010.8
20260501210524 62 5 2.0 8.0 0.06 0.92 0.92 98 1010.4
20260501210025 62 346 2.0 8.0 0.07 0.92 0.92 98 1010.5
20260501205523 62 339 4.0 10.0 0.07 0.91 0.91 98 1010.4
20260501205025 62 348 5.0 12.0 0.09 0.91 0.91 98 1010.3
20260501204523 62 344 6.0 12.0 0.09 0.91 0.91 98 1009.5
20260501204024 62 334 7.0 15.0 0.09 0.90 0.90 98 1009.4
20260501203525 62 355 6.0 15.0 0.10 0.90 0.90 98 1009.7
20260501203025 63 350 5.0 14.0 0.10 0.89 0.90 98 1009.8
20260501202523 63 17 5.0 11.0 0.12 0.89 0.89 98 1009.9
20260501202029 63 11 5.0 11.0 0.10 0.87 0.87 98 1009.6
20260501202024 63 350 6.0 11.0 0.11 0.88 0.88 98 1009.7
20260501201023 63 27 5.0 13.0 0.10 0.87 0.87 98 1009.1
20260501200523 63 349 5.0 13.0 0.09 0.86 0.86 98 1008.7
20260501200024 63 322 4.0 10.0 0.08 0.85 0.85 98 1008.9
20260501195524 63 348 4.0 10.0 0.07 0.84 0.84 98 1008.9
20260501195029 63 280 3.0 8.0 0.08 0.82 0.82 98 1009.4
20260501195024 63 5 2.0 9.0 0.07 0.82 0.82 98 1009.1
20260501194254 63 331 3.0 8.0 0.09 0.81 0.81 98 1009.5
20260501193523 63 5 3.0 5.0 0.10 0.80 0.81 98 1009.4
20260501193024 63 22 3.0 8.0 0.09 0.79 0.79 98 1009.3
20260501192524 63 350 3.0 8.0 0.08 0.77 0.77 98 1009.4
20260501192023 63 20 4.0 9.0 0.10 0.77 0.77 98 1009.2
20260501191526 63 351 4.0 9.0 0.12 0.77 0.77 98 1009.1
20260501191521 63 23 4.0 9.0 0.18 0.77 0.77 98 1009.2
20260501190521 63 22 4.0 9.0 0.25 0.77 0.77 98 1009.3
20260501190019 63 344 4.0 8.0 0.27 0.77 0.77 98 1009.6
20260501185516 63 33 3.0 8.0 0.33 0.77 0.77 98 1009.3
20260501185013 63 30 3.0 8.0 0.32 0.75 0.75 98 1009.8
20260501184513 63 26 3.0 8.0 0.31 0.74 0.74 98 1009.9
20260501184011 63 0 4.0 8.0 0.29 0.71 0.72 98 1009.8
20260501183511 63 44 3.0 8.0 0.31 0.70 0.70 98 1009.2
20260501183013 63 29 4.0 10.0 0.32 0.70 0.70 98 1010.0
20260501182512 63 37 7.0 13.0 0.31 0.69 0.69 98 1009.4
20260501182013 62 23 8.0 14.0 0.29 0.67 0.68 98 1008.3
20260501181511 63 32 7.0 14.0 0.28 0.65 0.65 98 1008.2
20260501181011 63 76 5.0 12.0 0.22 0.59 0.59 98 1008.5
20260501180511 63 55 5.0 10.0 0.14 0.51 0.52 98 1009.2
20260501180012 63 39 5.0 11.0 0.13 0.50 0.50 98 1008.7
20260501175506 63 78 5.0 11.0 0.07 0.44 0.45 98 1008.8
20260501175000 62 27 6.0 13.0 0.06 0.43 0.43 98 1008.8
20260501174453 63 41 6.0 13.0 0.06 0.43 0.43 98 1009.0
20260501173948 63 349 6.0 12.0 0.04 0.41 0.42 98 1009.1
20260501173442 63 355 5.0 12.0 0.02 0.39 0.39 98 1009.4
20260501172936 63 334 4.0 11.0 0.01 0.38 0.38 98 1010.1
20260501172430 63 320 4.0 9.0 0.02 0.38 0.38 98 1010.5
20260501171924 63 351 5.0 11.0 0.02 0.38 0.38 98 1010.7
20260501171418 63 5 6.0 12.0 0.03 0.37 0.37 98 1010.2
20260501171147 63 5 6.0 12.0 0.05 0.37 0.37 98 1010.5
20260501170415 63 336 6.0 12.0 0.06 0.37 0.37 98 1010.8
20260501170147 62 355 6.0 12.0 0.07 0.37 0.37 98 1010.5
20260501165647 63 342 6.0 13.0 0.09 0.37 0.37 98 1010.5
20260501164914 62 347 7.0 13.0 0.12 0.37 0.37 98 1010.7
20260501164644 62 5 6.0 10.0 0.13 0.37 0.37 98 1010.8
20260501164142 62 11 6.0 13.0 0.13 0.37 0.37 98 1011.2
20260501163411 62 351 7.0 14.0 0.14 0.37 0.37 98 1011.3